RH
95 98 96 95 95 95 91 87 82 74 74 72 72 72 64 69 66 55 62 47 48 55
97 99 98 96 94 94 92 87 82 79 76 77 71 66 62 60 58 60 65 59 51 54
94 96 98 97 97 96 94 85 84 78 76 78 69 61 54 50 49 50 62 61 53 53
97 96 98 98 97 94 87 83 79 74 74 71 66 55 50 49 48 50 53 56 55 54
90 98 98 93 86 88 84 76 74 71 69 62 54 47 48 49 60 66 66 67 72 66
95 96 95 89 78 73 72 72 69 63 57 55 55 54 55 59 66 69 76 75 75 60
93 93 89 79 71 68 66 65 61 57 57 60 62 67 74 76 78 79 77 78 73 66
86 80 74 68 65 62 62 63 63 68 71 74 76 77 84 84 83 84 79 73 65 63
72 70 72 72 73 73 72 75 78 79 81 84 82 83 80 76 78 78 82 90 84 69
73 75 76 75 78 83 86 87 89 90 89 91 90 86 88 89 92 95 94 85 67 57
82 86 87 89 90 91 91 92 95 99 97 98 95 94 96 98 97 94 92 75 72 73
89 92 92 96 98 98 100 99 100 99 99 99 100 97 89 88 70 62 62 64 68 71
95 96 98 99 100 100 99 100 100 100 99 98 99 91 89 64 59 63 65 73 66 65
97 97 98 99 98 98 98 97 97 94 74 72 54 53 45 60 63 64 71 72 71 69
Wind_Speed
11 7 8 9 8 9 10 12 12 13 11 11 12 10 9 7 5 6 6 9 1 2
7 6 9 10 8 8 7 7 11 12 12 10 11 12 12 8 8 7 6 6 7 3
7 8 6 5 8 8 6 8 11 12 13 11 10 11 11 9 9 8 4 5 9 4
6 9 5 5 5 6 6 8 9 10 11 12 11 11 10 10 10 9 5 5 6 4
6 3 4 3 4 6 7 7 10 10 11 11 12 12 12 12 9 9 6 6 4 4
3 1 3 5 6 7 9 9 10 11 11 12 12 14 12 13 10 8 7 2 6 2
1 2 5 6 8 9 9 10 10 10 11 12 12 12 12 11 10 8 6 7 4 3
4 5 6 7 8 10 12 12 13 14 13 13 12 8 12 10 9 7 7 6 2 2
7 9 10 11 10 11 12 13 14 13 14 13 10 21 19 12 8 9 6 5 1 1
8 10 11 11 11 11 12 12 13 12 13 13 13 20 19 18 8 7 4 4 4 2
8 10 10 11 12 12 11 10 11 11 12 12 11 17 15 13 6 6 4 3 4 3
7 9 10 11 10 9 10 9 9 8 9 10 8 15 12 8 5 5 4 3 3 1
10 10 11 10 10 8 9 8 6 8 7 12 6 11 12 7 3 4 3 2 3 6
9 10 9 9 9 9 8 9 8 7 5 4 3 4 6 7 3 2 2 1 2 3
Wind_Direction
229 213 207 196 202 196 200 203 192 184 186 183 162 151 155 152 144 144 139 128 257 153
258 221 207 200 203 203 198 187 173 175 170 170 163 158 156 149 144 142 134 145 137 171
251 237 221 188 199 191 170 155 165 166 162 165 164 150 145 136 137 139 140 153 135 169
249 239 205 195 181 164 137 151 157 160 155 155 150 144 136 128 126 118 130 125 121 127
288 216 191 177 146 148 131 136 147 145 144 141 142 137 129 124 116 111 130 115 102 129
318 218 134 118 131 132 132 132 135 142 144 139 137 125 120 119 119 125 112 86 118 119
345 120 118 129 126 125 122 122 120 116 120 119 112 107 104 105 102 98 94 104 86 123
44 78 89 103 107 106 105 105 106 108 102 100 102 104 102 101 108 111 105 105 107 118
61 83 85 87 91 95 102 108 109 110 110 106 104 111 111 101 96 82 80 89 168 229
66 76 83 90 90 90 94 97 102 105 104 104 104 114 113 112 113 112 136 171 160 134
82 83 87 89 90 91 89 93 95 100 98 99 106 113 106 104 108 114 116 190 126 98
70 79 82 82 81 74 84 82 80 83 91 96 100 107 123 126 118 129 151 123 73 74
70 74 75 82 78 75 74 79 89 86 77 99 111 142 150 135 128 103 99 69 34 326
71 77 74 73 77 80 78 83 75 82 80 121 125 59 94 123 85 88 84 18 276 260